Regional Weather Roundup
Issued by NWS Newport/Morehead, NC

Current Version | Previous Version | Text Only | Print | Product List | Glossary On
Versions: 1 2 3 4 5 6 7 8 9 10 11 12 13 14 15 16 17 18 19 20 21 22 23 24 25 26 27 28 29 30 31 32 33 34 35 36 37 38 39 40 41 42 43 44 45 46 47 48 49 50
000
ASUS42 KMHX 011522
RWRMHX
WEATHER ROUNDUP FOR EASTERN NORTH CAROLINA
NATIONAL WEATHER SERVICE NEWPORT/MOREHEAD CITY NC
1000 AM EST SUN FEB 01 2015

NOTE: "FAIR" INDICATES FEW OR NO CLOUDS BELOW 12,000 FEET
WITH NO SIGNIFICANT WEATHER AND/OR OBSTRUCTIONS TO VISIBILITY

NCZ015>017-031-032-045>047-102-103-011600-
NORTH COAST

CITY           SKY/WX    TMP DP  RH WIND       PRES   REMARKS
EDENTON        CLOUDY    41  23  49 CALM      30.30F
ELIZABETH CITY CLOUDY    36  23  59 CALM      30.32S
KITTY HAWK     PTSUNNY   40  27  59 NW6       30.30S
MANTEO         PTSUNNY   41  25  52 W7        30.32S

$$

NCZ045>047-081-094-103-104-011600-
CENTRAL COAST

CITY           SKY/WX    TMP DP  RH WIND       PRES   REMARKS
FRISCO         CLOUDY    45  31  58 VRB5      30.33R
SWANQUARTER      N/A     45 N/A N/A W2        30.27F

$$

NCZ095-097-098-100-101-011600-
SOUTHERN COAST

CITY           SKY/WX    TMP DP  RH WIND       PRES   REMARKS
BEAUFORT       PTSUNNY   49  32  52 SW5       30.31F
CEDAR ISLAND     N/A     45 N/A N/A S2G10     30.36S
JACKSONVILLE   MOSUNNY   50  22  33 SW8       30.33R
PINEY ISLAND     N/A    N/A N/A N/A MISG      30.32F
WILMINGTON     PTSUNNY   49  35  58 S6        30.32F


$$

NCZ011>013-027>030-043-044-078>080-089-090>093-098-011600-
COASTAL PLAIN

CITY           SKY/WX    TMP DP  RH WIND       PRES   REMARKS
AHOSKIE        CLOUDY    37  25  63 CALM      30.30S
CLINTON        CLOUDY    44  29  56 CALM      30.32F
ELIZABETHTOWN  CLOUDY    45  29  53 CALM      30.32F
GOLDSBORO      PTSUNNY   47  29  47 W6        30.30R
GREENVILLE     MOSUNNY   45  25  45 CALM      30.31S
HAVELOCK       PTSUNNY   46  27  47 SW5       30.33F
KENANSVILLE    PTSUNNY   46  26  46 CALM      30.33F
KINSTON        MOSUNNY   48  25  40 SW9       30.33R
NEW BERN       PTSUNNY   49  26  41 SW6       30.33F
RICHLANDS      MOSUNNY   48  27  43 W6        30.35R
ROCKY MOUNT    MOSUNNY   44  24  45 SW5       30.30R
WASHINGTON     CLOUDY    42  25  51 SW3       30.32R
WHITEVILLE     CLOUDY    48  29  48 SW5       30.32S

$$

AMZ130-135-150-152-154-156-158-170-250-252-270-ANZ085-086-088-633-658-670-011600-
MARINE OBSERVATIONS

STATION/POSITION TIME  TEMP    WIND        PRES    WAVE   SWELL
                       AIR SEA DIR/SP/G            HT/PER HT/PER
                 (UTC) (F)     (DEG/KT/KT) (MB)    (FT/S) (FT/S)
CHESAPEAKE LIGHT 1500   39      90/ 13/ 14 1026.8
64 E VA BEACH    1500   43 48   40/  8/ 10 1025.8    3/ 6   3/ 6
DUCK             1500   37 40  300/  2/  3 1025.5
2 E DUCK         1500      40                N/A     2/ 7
10 NE DUCK       1500      43                N/A     3/ 7
OREGON INLET     1500   40 36  270/  4/  5 1026.8
13E OREGON INLT  1500      41                N/A     4/10   2/11
HATTERAS CG      1500   45 45  260/ 11/ 13 1027.2
DIAMOND BUOY     1500   52 71  270/ 14/ 17 1026.8    7/11   7/11
17 S OCRACOKE    NOT AVBL
CAPE LOOKOUT     1500   49     320/  3/  3 1026.2
BEAUFORT LAB     1500   49 45  310/  1/  3 1025.4
27 SE WRIGHTSVLE NOT AVBL
5 SE WRIGHTSVLE  1500   50 51  230/  6/  6 1027.1
225 S CAPE HAT   1352   59 70   20/  4/  6 1028.8    8/11   8/11
41 SE CHARLESTON 1500   60 70  190/  8/ 12 1026.3    4/11   3/11

$$


USA.gov is the U.S. government's official web portal to all federal, state and local government web resources and services.